Location: Leipzig
(51.3203°N, 12.3761°E)
Time: 21:51:44
(UTC+01:00)

ISS - Pass Details

Date: 07 December 2021
Orbit: 413 x 422 km, 51.6° (Epoch: 27 January)

Event Time Altitude Azimuth Distance (km) Brightness Sun altitude
Rises 17:01:31 0° 284° (WNW) 2,390 0.9 -8.6°
Reaches altitude 10° 17:03:43 10° 276° (W) 1,520 0.1 -9.0°
Maximum altitude 17:06:52 35° 209° (SSW) 704 -2.1 -9.4°
Drops below altitude 10° 17:10:00 10° 141° (SE) 1,507 -1.1 -9.8°
Enters shadow 17:13:27 -4° 130° (SE) 2,879 0.2 -10.3°
